Location: Étavigny
(49.1201°N, 2.9800°E)
Time: 13:05:01
(UTC+00:00)

SL-16 R/B - Pass Details

Date: 28 January 2023
Orbit: 842 x 846 km, 71.0° (Epoch: 23 March)

Event Time Altitude Azimuth Distance (km) Brightness Sun altitude
Rises 18:13:27 0° 174° (S) 3,385 5.4 -15.6°
Reaches altitude 10° 18:16:09 10° 164° (SSE) 2,455 4.5 -16.0°
Maximum altitude 18:20:58 30° 105° (ESE) 1,468 2.9 -16.8°
Enters shadow 18:22:08 28° 83° (E) 1,545 3.0 -17.0°
